Wind_Speed
38 36 43 50 52 55 51 49 43 27 26 31 26 27 29 23 22 31 33 25 24 29 31 31 30 29 29 28 27 23 22 21 17 17 19 20 20 19 19 20 19 17 18 19 18 16 14 16 18 19 19 19 21 23 24 24 24 23 25 26 24 22 20 18 16 14 14 13 12 12 12 12 12 13 15 16 16 16 17 16 15 13 12 11 10 9
36 39 46 50 47 49 49 46 44 34 26 26 24 22 27 27 22 25 32 27 22 23 25 27 30 29 27 27 28 27 24 21 19 19 19 21 23 20 19 21 21 19 21 21 19 18 16 18 20 20 20 22 23 24 23 23 24 24 25 25 23 21 17 15 15 14 14 13 11 11 11 12 13 15 16 16 16 16 16 14 13 13 12 10 9 8
38 43 44 43 43 44 45 44 43 39 31 22 20 21 23 26 24 21 27 29 25 22 20 22 27 28 29 29 28 27 26 24 22 20 19 20 22 19 17 19 22 22 23 23 21 19 18 18 20 21 22 24 24 23 22 23 24 24 25 25 22 19 17 16 16 17 16 14 14 15 14 15 16 17 17 16 16 16 15 14 13 13 12 10 9 9
37 39 40 40 41 42 42 42 41 40 35 25 19 20 20 23 25 22 22 26 25 23 21 19 23 29 32 33 31 27 26 26 24 22 20 20 18 16 16 18 21 23 24 24 23 20 18 19 21 23 24 25 25 23 22 22 23 24 24 24 22 20 18 18 18 18 17 16 17 17 17 18 18 18 16 16 16 15 15 15 14 13 12 11 9 8
33 29 37 39 38 41 40 40 41 40 38 32 23 20 20 20 23 23 21 22 22 21 24 22 20 26 31 32 31 29 27 26 25 24 24 24 20 17 19 21 21 23 24 23 22 19 18 19 22 25 26 26 26 24 22 22 22 23 24 24 23 21 19 19 18 17 17 18 17 18 18 18 18 17 15 15 14 15 16 16 15 14 13 11 9 7
35 24 31 40 38 40 40 39 43 41 37 36 29 23 21 18 18 22 22 23 22 19 24 25 15 15 26 29 29 29 27 27 27 27 28 26 23 19 18 20 22 24 26 23 19 17 17 20 24 27 28 27 26 24 24 23 22 23 25 25 24 22 21 19 18 18 18 18 17 17 17 16 16 15 14 14 14 14 16 16 16 14 13 11 9 8
37 26 26 37 40 39 39 39 42 42 36 35 33 25 22 18 16 21 24 23 21 16 20 26 16 9 19 27 27 28 29 30 31 30 29 29 25 21 19 20 24 26 26 23 19 18 19 22 26 28 28 26 25 25 25 24 25 25 26 26 25 23 21 19 19 19 18 18 18 19 19 16 14 13 13 15 15 15 15 15 15 14 12 10 9 7
38 33 25 32 39 39 40 40 41 43 36 32 34 27 22 20 18 21 26 23 17 12 14 23 23 14 17 26 27 28 32 33 35 33 31 31 28 24 23 24 26 26 25 23 21 21 21 22 26 28 27 25 24 25 26 26 26 27 27 27 25 22 20 19 19 19 20 22 22 22 20 18 16 14 14 16 15 14 14 13 13 12 10 9 8 7
35 38 29 28 37 40 41 40 38 40 35 31 34 29 22 21 20 21 25 21 14 10 11 18 22 14 13 26 27 28 36 37 37 37 32 31 30 27 27 28 28 26 24 23 22 21 22 23 26 28 26 25 26 26 26 26 26 26 26 25 23 20 20 19 19 21 22 22 21 19 18 17 16 16 17 17 16 14 12 10 10 9 9 8 7 6
24 38 32 27 36 40 39 38 35 36 36 34 34 30 23 19 19 20 20 18 13 10 15 18 19 11 9 26 32 30 38 39 37 37 33 31 31 30 30 29 28 27 25 24 23 22 22 23 26 29 28 27 28 28 26 26 26 25 25 22 20 20 19 19 19 21 22 20 18 17 17 17 16 17 18 18 16 13 9 8 8 8 7 7 6 6
14 30 33 29 34 37 36 35 33 32 35 37 34 29 23 16 15 15 14 15 10 9 19 21 19 13 8 23 36 36 35 35 35 37 35 32 33 34 33 31 30 28 26 25 25 24 23 24 27 30 30 29 29 29 27 26 26 24 23 21 19 19 19 19 20 21 20 18 17 17 18 17 16 17 17 16 14 10 7 7 7 7 7 7 6 6
12 21 33 34 32 33 33 34 33 30 34 38 34 28 21 14 12 10 10 14 8 5 17 22 19 17 13 21 34 36 33 32 33 35 34 33 34 36 34 32 30 29 28 27 27 26 25 26 29 31 31 30 29 28 27 26 26 24 23 22 20 20 20 20 20 20 19 19 18 17 16 16 17 17 16 14 12 9 7 8 8 8 8 7 5 5
20 23 29 30 29 32 33 33 32 31 35 37 35 31 19 7 8 7 5 8 6 2 10 17 15 17 21 26 30 32 34 34 33 33 31 29 32 35 36 33 31 31 30 29 28 27 27 27 29 31 31 30 29 28 27 25 24 24 23 22 20 20 20 19 19 19 20 19 18 15 15 16 17 17 15 13 10 9 9 9 9 8 7 6 5 5
21 22 25 26 27 33 36 36 36 36 38 39 39 37 21 6 5 6 3 1 2 4 11 17 13 13 17 21 27 32 32 30 31 31 29 29 31 35 36 34 33 32 30 30 30 29 28 28 29 31 31 30 29 28 26 23 22 23 22 22 21 20 19 18 18 19 19 18 16 14 16 18 18 16 14 12 10 10 10 9 9 8 6 5 5 5
18 15 25 32 27 32 39 40 40 39 39 40 39 36 26 13 5 4 4 3 3 4 11 15 9 7 9 12 23 31 30 29 32 33 31 31 34 35 36 35 34 33 31 30 31 30 28 29 29 30 30 30 30 27 24 22 22 22 22 22 21 20 19 18 18 18 17 17 16 16 18 18 17 16 14 13 11 10 9 9 9 7 6 5 5 6
20 12 22 32 24 28 38 38 38 37 34 37 36 30 30 25 10 4 5 8 9 5 6 12 8 6 9 12 22 30 30 32 35 36 35 33 35 36 36 36 35 33 31 31 32 31 30 30 29 30 30 30 29 26 23 22 22 22 22 22 20 19 19 18 18 18 17 18 19 19 19 18 17 17 15 13 11 9 10 9 8 6 5 6 6 7
18 12 18 29 23 22 32 36 39 36 30 33 35 30 29 28 17 6 3 7 10 6 5 10 9 9 12 14 23 29 28 33 38 37 36 33 34 35 35 36 35 33 31 31 33 32 31 31 31 30 30 30 28 25 23 23 22 22 22 20 19 18 18 18 18 18 17 19 21 21 20 18 17 17 15 12 10 10 10 8 6 5 5 6 7 8
13 13 18 30 27 21 25 32 37 37 30 31 36 30 22 21 20 15 5 2 4 4 5 10 11 14 14 14 23 28 27 33 38 37 36 34 33 34 34 34 34 32 30 31 33 33 32 33 32 31 31 29 27 24 23 23 22 22 21 19 18 17 17 18 18 18 19 20 21 21 20 19 18 16 14 11 10 10 9 7 5 4 5 7 8 9
11 12 15 26 29 23 21 27 34 39 34 28 31 32 23 17 19 18 8 1 3 2 3 5 9 16 21 21 26 29 29 33 35 35 36 33 31 33 34 35 35 32 30 32 34 34 34 33 32 31 31 29 27 25 24 24 22 21 20 19 18 18 18 18 18 19 21 21 22 21 20 20 18 16 13 11 10 9 8 7 5 5 5 7 8 10
9 10 12 23 29 25 24 30 36 40 39 28 24 31 30 18 16 19 13 5 4 3 3 3 1 10 23 26 27 29 30 33 35 33 32 29 29 32 34 34 35 32 31 33 35 35 34 32 31 31 31 29 28 26 26 24 22 21 19 19 19 19 20 20 20 21 22 22 22 21 21 20 18 14 12 12 11 10 9 7 7 7 6 7 9 10
7 6 10 22 29 27 29 35 38 40 42 36 28 32 34 22 16 19 17 12 7 1 4 4 2 6 18 20 24 29 29 31 33 29 27 28 29 31 32 32 33 31 31 32 34 34 32 31 31 30 30 29 28 27 27 25 22 21 20 21 20 20 21 21 21 22 23 23 22 21 21 20 17 14 13 12 12 11 10 8 8 9 9 9 11 12
8 3 5 20 30 31 33 34 34 36 39 39 33 30 33 27 18 14 11 15 13 4 3 6 1 5 13 12 16 24 26 27 28 25 26 29 30 30 31 30 30 29 29 30 31 32 30 30 30 30 29 29 29 29 27 25 23 22 21 21 21 21 21 21 21 23 24 23 23 22 22 22 18 14 13 14 13 13 12 10 10 10 11 12 13 14
6 2 3 15 29 29 28 28 28 30 32 34 30 25 27 30 25 16 9 12 15 7 3 6 3 6 13 12 12 15 19 25 26 26 26 27 28 29 29 28 28 28 28 28 30 31 29 29 29 29 28 28 28 29 27 25 24 23 22 22 22 21 21 22 22 23 24 24 23 23 23 23 19 16 15 15 15 14 13 12 12 12 13 14 15 15
8 8 4 12 23 22 22 24 27 30 28 29 31 27 26 30 29 20 12 14 16 12 7 6 2 7 14 15 12 11 15 24 28 28 28 27 27 27 28 27 26 27 27 28 30 31 29 29 28 28 28 27 28 28 27 26 25 24 22 22 22 22 22 22 23 24 24 24 23 23 23 21 19 18 17 17 16 15 14 13 13 13 14 15 16 16
6 9 6 11 14 13 15 18 24 31 31 29 32 29 23 27 31 24 15 13 14 13 12 7 4 9 15 15 15 14 16 24 29 28 28 27 26 26 27 26 25 27 29 30 32 32 31 30 28 28 26 26 26 26 26 26 25 24 23 22 22 23 23 24 24 23 23 22 22 21 21 20 19 19 18 17 16 15 14 14 14 15 16 16 16 16
6 7 9 13 11 8 9 14 24 34 33 27 29 30 23 21 31 32 21 13 10 9 11 9 8 14 18 16 17 20 23 26 27 25 25 25 24 24 25 25 25 28 30 32 33 32 31 30 28 27 25 24 25 25 25 26 25 24 23 22 23 23 24 24 24 23 22 21 21 21 20 20 19 19 18 17 16 16 15 15 15 16 17 16 16 16
11 10 10 19 22 15 9 14 27 34 30 21 21 27 26 19 24 31 24 14 9 8 9 8 9 16 20 21 20 22 26 25 22 23 24 24 25 25 24 24 25 27 30 32 33 31 30 30 28 26 24 24 24 24 24 25 25 25 24 23 24 24 24 24 24 23 22 21 21 20 20 20 19 19 18 17 17 16 16 16 16 16 17 16 16 15
12 10 9 19 27 22 12 12 22 28 26 20 18 21 23 19 19 25 23 15 10 8 6 4 7 11 16 21 23 24 26 25 23 24 25 25 26 25 23 23 24 26 29 30 30 29 27 26 26 24 23 23 23 22 23 25 27 26 25 24 24 24 23 24 24 23 22 21 20 19 19 19 19 19 18 17 17 17 16 17 16 16 16 16 15 15
8 5 8 15 23 23 16 13 19 23 23 21 17 17 19 18 16 18 18 14 12 10 6 2 4 8 10 13 19 25 28 27 25 26 26 26 26 24 22 22 24 26 28 28 28 26 24 24 24 22 21 21 21 20 21 25 27 27 27 26 24 24 24 24 23 22 21 19 19 18 18 18 18 18 18 17 16 16 16 17 16 16 16 15 15 13
3 7 10 12 17 18 15 14 16 19 20 20 19 18 19 18 16 15 15 13 13 12 9 6 4 5 8 11 16 23 28 28 27 27 26 24 23 22 21 22 24 26 27 27 27 25 24 24 22 20 19 19 18 18 21 24 26 27 27 26 25 24 24 24 23 22 20 19 18 18 18 18 17 16 16 16 16 16 17 17 16 16 15 14 13 12
1 9 12 14 15 14 14 14 13 15 20 20 17 17 17 15 15 18 16 15 15 11 8 9 8 5 8 13 16 21 26 29 29 28 26 24 21 21 22 23 25 26 27 27 26 25 24 24 22 19 17 17 17 19 21 22 24 26 27 26 24 24 24 24 24 22 21 20 19 18 17 16 15 15 15 16 16 16 16 16 15 15 14 13 12 11
4 10 14 15 14 13 14 16 14 15 20 20 16 14 14 11 12 17 17 14 14 11 7 9 10 7 8 13 17 22 26 28 31 31 28 24 23 23 24 25 24 25 26 26 25 24 23 22 20 16 15 17 19 20 21 21 22 24 26 26 24 23 24 25 24 23 22 22 20 19 17 16 15 15 15 15 14 14 15 15 15 14 13 12 12 11
6 9 15 15 11 11 13 16 18 19 15 12 13 15 13 10 10 14 14 12 11 10 8 8 11 10 9 11 17 23 25 26 29 30 28 26 26 25 25 25 23 23 23 23 22 21 20 20 19 16 15 17 19 21 21 20 20 21 24 24 24 24 24 25 25 24 24 23 21 20 19 18 17 17 15 14 13 14 15 15 15 14 13 12 12 12
5 7 13 14 10 8 11 18 22 16 8 5 10 14 13 10 8 10 11 10 9 9 7 7 11 12 10 11 15 20 22 23 25 28 28 27 26 25 24 24 24 23 22 21 22 22 22 21 21 19 17 16 18 21 22 21 20 20 22 25 25 25 25 26 26 26 24 23 23 22 21 21 19 18 16 14 13 14 14 15 14 14 13 13 13 13
6 9 12 13 11 8 10 18 18 8 5 8 9 11 12 11 10 10 10 9 9 9 8 7 10 11 10 12 15 17 20 21 24 27 29 27 25 24 23 23 23 23 22 21 21 20 20 21 21 20 18 17 18 22 23 22 22 22 24 26 27 27 26 26 26 27 25 24 24 24 24 24 22 19 17 15 14 14 14 14 14 13 13 13 13 13
5 9 12 12 11 9 7 10 10 7 11 15 11 8 10 12 11 10 11 11 10 9 9 10 11 11 11 13 16 19 21 21 23 27 28 26 23 22 22 22 21 20 19 17 15 14 15 16 18 19 18 17 18 21 23 23 22 23 25 27 28 28 27 26 27 27 26 26 26 26 26 27 24 20 16 15 14 14 14 14 14 13 13 13 13 13
5 7 12 11 8 8 9 11 12 13 13 13 12 11 10 11 12 11 12 13 13 12 12 13 14 14 14 15 17 20 23 23 24 25 25 23 20 19 19 20 18 16 16 15 14 13 14 15 18 19 19 18 17 19 22 23 23 24 25 26 27 28 28 28 29 28 28 28 27 26 27 28 24 20 17 15 14 14 14 14 14 13 13 13 13 13
6 7 9 9 8 11 14 13 10 7 6 7 9 10 10 11 11 12 12 13 14 14 14 15 15 17 17 16 17 19 21 22 23 22 21 22 22 20 19 18 18 17 17 16 15 15 16 17 19 19 20 21 20 19 22 24 23 24 25 24 25 27 29 30 30 29 30 30 27 27 28 27 24 20 18 16 15 14 15 15 14 14 14 14 13 13
7 9 9 11 11 12 13 10 5 3 4 6 7 6 7 9 10 11 12 12 14 16 15 16 16 16 17 16 15 17 19 20 21 20 19 19 19 19 18 18 19 20 19 18 16 16 17 19 20 20 22 24 23 21 23 25 25 25 25 23 25 27 28 29 29 30 31 29 26 26 27 26 23 21 19 18 17 16 16 16 15 14 14 13 13 13
6 9 10 13 13 11 11 10 7 6 8 8 7 5 5 7 8 10 9 8 13 15 14 16 16 15 16 15 15 17 19 18 16 15 15 14 13 15 16 16 17 18 17 17 16 17 19 20 21 22 23 25 26 24 24 25 25 26 26 25 26 27 25 25 26 26 25 22 20 20 22 23 24 24 21 19 18 17 17 17 15 14 13 13 14 14
4 9 11 13 13 11 11 11 9 8 9 9 9 6 4 5 7 8 6 6 10 13 12 14 15 15 16 16 16 18 18 16 13 11 11 10 10 11 11 11 13 14 15 15 15 16 19 20 22 23 24 26 28 28 26 26 24 24 25 23 22 23 23 23 22 20 19 17 16 17 18 21 26 26 23 21 19 18 18 17 15 14 14 14 15 15
4 6 9 10 11 11 11 11 9 7 7 8 6 4 4 5 4 5 4 4 6 8 9 11 13 15 16 16 16 17 17 16 14 12 11 10 10 10 9 9 10 11 13 16 15 15 15 16 19 22 24 27 30 29 27 26 24 21 22 21 19 20 20 20 19 18 17 16 15 16 17 20 23 23 20 19 19 18 18 17 16 15 16 16 16 15
5 4 6 7 8 8 9 8 6 5 7 7 5 2 2 3 2 2 2 3 4 6 7 8 9 12 14 16 18 19 19 18 15 14 13 12 11 11 10 10 9 9 11 14 16 16 15 15 16 19 21 26 29 28 26 25 24 21 22 22 19 18 17 17 18 18 15 14 15 17 18 20 22 22 21 19 19 19 18 18 17 17 18 17 16 15
6 5 5 6 6 6 6 5 3 5 8 8 5 3 3 2 2 2 3 4 5 6 8 9 8 9 11 14 19 22 22 20 17 14 13 12 11 10 11 10 9 9 9 12 15 17 16 16 16 18 20 23 26 27 27 27 26 26 24 22 20 18 18 18 18 17 14 14 16 18 19 21 24 24 22 20 20 19 19 19 18 19 18 17 16 15
6 5 5 5 6 5 5 5 5 6 7 7 5 4 3 2 2 3 4 6 6 7 8 9 10 10 11 13 20 25 24 21 18 15 14 13 12 11 11 11 11 10 9 11 13 15 16 17 17 18 19 21 24 26 27 27 25 23 21 20 19 18 19 20 19 17 16 17 18 19 21 23 24 24 22 21 20 19 19 19 19 18 17 17 17 16
8 6 4 4 6 6 5 5 5 5 6 5 4 3 2 2 3 4 6 7 7 7 7 8 9 10 12 13 18 23 25 24 22 20 19 18 16 14 13 14 14 12 11 11 11 13 15 17 18 19 20 21 23 24 24 23 20 19 19 20 19 19 21 21 20 19 19 19 19 20 22 24 25 24 22 22 21 20 20 20 19 18 17 17 17 16
9 8 5 5 6 6 5 6 6 5 4 4 3 3 3 4 5 7 8 9 9 9 8 8 8 10 12 13 15 18 21 23 24 23 22 21 20 17 16 16 16 15 13 11 10 10 12 14 16 17 18 20 23 23 22 24 24 23 22 21 20 21 22 22 21 21 21 20 20 21 23 24 25 23 22 22 21 21 22 22 20 19 18 17 16 15
10 9 8 7 7 6 6 7 7 6 5 4 4 4 4 6 8 10 11 11 11 10 9 9 10 10 11 12 14 16 18 20 20 20 20 20 20 19 18 17 16 15 14 13 11 11 11 13 14 15 15 15 18 20 22 26 27 26 26 23 22 24 25 23 21 22 23 22 20 20 22 24 24 23 23 22 22 22 22 21 19 19 19 18 16 14
10 10 10 9 8 8 8 7 7 8 8 7 7 6 6 8 10 12 12 11 10 9 8 9 10 10 10 10 11 15 18 20 20 20 20 19 19 19 19 19 18 16 15 14 12 11 11 11 13 15 15 15 14 16 21 25 26 27 27 24 24 27 28 23 21 23 24 22 20 21 23 24 25 24 23 23 23 23 22 20 19 20 20 20 18 16
10 10 10 10 9 10 9 8 8 8 7 7 7 7 8 9 11 12 12 10 10 10 10 10 10 9 9 9 9 11 15 19 20 21 21 21 20 20 20 20 19 18 17 16 15 14 13 12 13 15 16 17 15 15 19 23 26 27 26 23 25 29 28 24 24 25 25 22 21 22 23 25 25 25 24 24 24 23 21 19 20 21 22 22 20 18
12 12 11 10 10 11 11 11 10 11 9 8 8 9 9 10 12 14 14 14 13 14 14 14 12 10 9 9 9 11 14 18 21 22 22 22 22 22 23 22 21 20 19 18 16 15 14 14 14 15 18 19 18 16 18 23 28 28 25 25 28 30 27 25 26 26 24 22 21 22 24 25 25 24 23 24 24 22 19 19 20 22 23 23 21 19
Wind_Direction
196 198 200 201 201 199 198 200 200 196 200 203 203 204 205 204 210 215 212 204 204 211 219 223 224 224 223 223 224 222 218 216 219 231 242 241 238 243 247 245 243 242 234 226 226 222 209 201 204 206 204 198 197 200 198 196 196 194 187 182 183 189 192 199 211 229 240 240 236 233 231 223 213 212 215 212 210 212 214 215 219 218 210 206 208 216
200 205 206 204 202 200 199 201 201 196 192 198 201 199 203 207 208 212 213 207 203 214 221 222 224 224 222 224 225 223 221 222 229 242 245 237 236 243 247 241 239 235 226 223 227 223 213 203 201 203 201 197 197 201 201 201 200 195 188 184 185 192 199 205 216 228 234 230 223 222 225 221 216 216 215 213 212 213 213 214 213 208 204 204 209 214
204 210 209 205 202 200 201 203 203 200 193 189 191 193 198 202 205 210 214 213 210 218 224 219 219 220 218 222 226 224 225 230 237 247 246 236 237 242 241 237 234 228 221 224 230 227 218 207 202 202 199 195 196 198 199 200 200 194 187 186 190 199 207 212 220 227 226 218 215 211 212 215 217 216 213 213 214 212 210 208 202 199 199 201 206 212
206 213 209 204 202 200 201 205 205 204 201 194 189 192 192 193 199 202 206 212 216 221 227 222 213 214 217 221 223 222 226 231 235 241 238 230 233 236 235 236 231 225 223 229 233 229 220 210 203 199 196 194 193 193 196 196 195 190 187 191 198 206 213 217 222 225 219 214 215 214 211 213 215 215 213 212 215 212 205 201 197 195 197 201 208 217
206 212 209 204 203 201 202 204 206 206 206 204 202 196 188 185 194 199 197 203 208 214 222 221 212 213 217 218 220 221 224 227 231 236 233 227 228 230 233 234 228 225 230 236 237 233 224 212 201 196 194 193 191 192 194 192 189 188 190 197 204 209 214 217 219 221 219 217 217 217 217 217 215 215 213 210 212 208 199 196 196 196 200 206 216 229
208 208 208 205 202 202 202 204 205 207 208 209 209 199 185 177 183 196 200 200 205 211 216 216 210 214 219 219 220 221 222 225 228 232 232 231 230 226 225 226 224 225 230 235 239 238 226 208 198 194 194 193 192 194 194 192 192 193 197 203 209 210 210 214 216 218 220 220 219 218 221 222 218 217 209 199 199 198 196 195 196 198 203 211 222 234
208 201 207 207 203 202 203 205 206 206 208 211 210 195 180 177 175 189 201 205 210 215 215 217 218 222 225 223 222 222 224 226 227 229 231 232 230 221 214 214 219 224 227 226 225 226 219 205 198 196 195 195 194 195 195 196 199 202 206 209 209 207 205 210 214 216 218 217 215 213 216 217 216 216 203 190 188 190 192 193 195 200 206 214 225 233
207 197 201 206 204 203 203 203 205 205 207 211 207 194 183 183 174 183 200 208 214 215 217 222 224 226 231 228 224 222 223 224 225 227 230 231 229 221 212 211 217 222 225 224 219 216 212 206 202 199 198 197 195 196 198 201 205 208 210 208 204 202 205 210 213 216 217 216 215 211 207 205 202 201 195 188 186 186 186 187 192 200 207 215 224 235
206 198 196 200 202 204 204 202 203 205 207 208 203 196 193 190 183 189 201 209 217 224 229 223 217 218 235 232 228 223 220 220 222 225 227 230 229 224 217 215 219 222 223 225 222 215 209 205 202 198 197 197 196 199 202 205 207 209 209 205 203 202 206 209 212 218 220 220 222 217 206 200 194 186 185 185 184 184 186 188 194 202 209 217 225 240
209 203 197 199 203 204 204 201 200 204 206 205 201 200 204 203 206 209 213 222 229 241 239 222 208 203 233 232 226 217 216 219 223 225 226 228 228 226 222 218 220 221 222 222 220 216 210 205 200 196 197 199 200 203 205 207 208 209 210 208 205 203 205 209 214 223 226 223 228 224 205 194 184 177 178 180 181 184 188 194 201 209 216 223 230 247
209 208 202 204 206 205 204 200 199 203 205 204 201 203 209 210 215 220 226 232 236 246 239 230 218 210 225 234 227 221 220 221 222 223 224 225 226 226 224 220 220 222 221 219 215 213 209 203 200 198 200 202 204 208 209 209 209 209 211 210 206 205 209 214 219 227 228 223 227 224 205 187 175 173 176 178 178 182 192 204 211 216 223 228 237 255
188 205 207 208 208 204 201 200 198 200 202 202 201 203 208 207 207 219 226 221 223 242 236 235 231 218 219 235 232 229 230 229 224 220 221 222 221 223 224 220 220 223 221 217 213 211 207 202 201 201 203 205 207 209 210 210 208 207 210 209 209 214 215 215 220 226 224 221 224 220 201 180 172 175 178 179 179 189 206 216 218 222 228 231 241 257
191 200 205 208 209 203 197 195 195 197 199 200 202 202 202 191 193 214 220 210 218 236 229 235 232 220 227 240 239 234 231 229 227 223 220 220 218 219 222 219 217 221 220 215 211 209 205 201 202 204 206 207 207 208 210 210 207 207 210 210 213 219 220 219 221 224 222 220 220 210 190 176 175 177 179 179 184 200 213 218 222 227 231 234 244 255
194 198 201 201 206 204 197 192 189 193 196 196 201 200 193 160 167 203 213 198 229 216 224 234 232 218 229 243 241 233 227 224 222 221 221 223 222 221 220 217 216 219 218 213 211 209 205 201 203 206 207 206 205 207 210 210 207 209 212 214 216 220 223 224 222 223 223 220 216 203 185 177 178 179 179 184 194 207 215 218 225 231 230 235 250 259
188 195 199 195 199 201 199 198 192 191 192 195 202 203 199 193 172 182 194 178 182 195 213 218 213 196 203 229 230 225 225 224 219 218 219 222 224 224 221 217 216 217 216 212 211 209 206 203 203 206 207 205 205 207 209 208 209 213 216 219 220 221 223 223 221 222 221 214 209 199 187 181 181 181 184 194 204 212 217 220 227 231 229 237 254 261
191 199 197 192 197 198 197 200 196 192 192 195 200 205 206 204 191 172 183 183 185 183 201 196 192 211 209 218 225 223 225 223 216 214 217 218 220 222 222 218 216 217 214 212 211 209 206 205 205 207 208 206 205 206 207 209 212 216 220 222 222 221 221 221 219 218 214 207 202 196 190 187 184 184 190 200 208 214 218 223 228 230 231 240 252 259
193 203 190 188 197 200 197 197 196 195 193 195 199 205 209 207 204 214 198 178 183 183 206 197 192 215 213 213 222 223 221 217 214 212 214 217 219 221 222 219 218 218 215 212 212 210 207 206 206 208 209 206 205 206 208 210 214 218 224 224 220 217 217 216 215 213 207 201 197 193 191 190 187 187 194 202 209 217 221 225 228 230 238 246 253 259
188 195 188 188 192 194 196 195 197 199 197 197 201 202 201 201 212 227 231 126 149 172 212 199 180 186 194 204 213 214 210 210 213 213 211 216 218 219 220 219 220 221 217 214 213 209 207 208 207 208 208 206 205 207 209 212 215 219 223 221 215 214 214 212 210 207 202 197 194 192 192 191 191 192 199 205 212 221 223 225 229 234 245 252 257 259
182 191 192 194 190 184 191 194 197 202 203 202 205 202 196 193 205 215 219 166 150 180 224 200 181 187 193 196 200 205 206 207 210 210 211 214 214 215 216 215 219 221 217 215 212 208 207 208 208 207 206 204 204 207 210 212 216 220 220 214 208 209 209 208 207 203 200 197 195 196 195 194 194 197 205 211 220 227 225 225 230 236 247 255 259 260
168 180 184 194 192 185 190 196 198 201 202 205 209 206 202 199 196 198 208 225 190 176 203 197 187 199 199 199 198 202 207 208 208 207 207 209 210 212 213 213 217 218 217 217 212 208 209 210 209 207 205 204 205 208 209 212 216 219 217 212 208 207 205 205 205 201 199 199 199 200 200 198 198 205 214 220 227 232 231 232 234 237 246 253 259 262
163 172 176 187 192 194 197 200 201 198 196 200 205 202 199 197 193 195 209 230 227 171 169 173 3 210 199 199 199 198 200 204 206 201 199 204 208 212 212 213 216 216 217 218 215 211 210 209 208 205 204 206 207 208 208 210 215 216 215 212 209 209 207 205 203 199 198 200 202 204 204 202 205 215 223 227 233 237 238 240 240 240 246 251 257 263
167 173 178 182 189 199 203 203 204 199 195 198 202 202 199 196 191 184 202 226 230 249 172 166 189 201 184 176 182 190 195 199 200 197 196 202 206 210 213 213 214 214 215 217 216 213 211 209 206 204 206 209 208 206 207 209 212 213 214 212 209 210 210 207 203 199 198 200 203 206 206 206 213 225 232 234 238 241 243 246 246 245 247 251 257 265
173 281 310 189 190 199 207 207 203 197 197 200 205 208 205 202 198 186 185 211 217 232 196 160 164 186 181 174 162 172 192 200 200 197 197 202 207 210 212 210 211 213 214 215 215 212 211 210 207 205 207 209 206 204 206 209 210 212 214 212 209 211 210 207 203 200 199 201 204 207 208 212 222 234 238 239 240 243 247 249 249 250 251 255 261 268
217 257 286 171 177 188 200 204 199 194 196 201 205 209 207 204 202 194 191 202 202 199 176 146 160 180 176 180 174 172 194 197 193 191 193 201 208 210 211 210 207 209 211 213 214 212 211 211 209 207 208 208 205 204 206 208 209 212 215 212 210 211 210 207 204 202 202 203 206 208 212 219 230 237 238 239 242 245 248 249 249 250 252 257 263 267
227 243 214 151 150 162 178 187 188 191 198 203 203 205 205 204 204 204 207 207 198 193 182 166 179 177 166 172 178 177 184 183 182 186 192 201 207 208 210 210 205 206 208 209 211 212 211 211 210 210 210 209 206 204 206 208 209 213 215 213 211 210 208 207 205 204 205 207 210 214 220 227 233 236 238 240 243 245 246 245 245 248 251 257 262 267
312 273 219 181 161 149 162 175 180 184 191 199 200 199 197 197 203 207 210 208 197 189 190 184 165 167 172 182 182 177 179 181 184 190 196 202 207 208 209 207 204 206 207 208 210 211 212 212 212 212 212 211 209 207 208 209 210 213 216 216 214 211 209 208 206 207 209 211 216 220 225 230 233 237 241 242 244 243 242 242 244 248 253 258 262 266
306 289 234 198 182 168 156 172 182 184 181 176 179 188 191 190 198 203 204 208 203 176 178 189 171 166 177 188 190 185 184 188 193 196 196 199 202 206 208 205 202 204 206 209 211 213 213 213 213 215 215 214 212 210 211 212 211 214 218 219 218 215 212 210 208 210 212 215 219 223 227 231 235 239 242 243 243 243 243 244 247 251 255 258 261 265
295 280 236 204 189 180 166 161 177 184 183 173 161 171 184 187 191 198 201 207 207 182 168 178 177 179 183 188 195 195 193 195 198 195 194 197 200 203 206 203 201 202 205 209 213 215 215 214 215 218 218 217 215 213 214 214 213 214 218 221 221 219 216 213 211 212 214 216 219 223 227 231 234 237 240 243 244 245 245 247 248 250 253 255 258 261
291 233 187 192 187 180 177 174 176 181 187 190 180 168 180 191 195 201 205 211 219 220 217 180 163 185 190 190 195 198 199 201 197 193 194 199 202 204 204 202 199 199 202 206 209 211 211 212 216 218 217 217 217 215 214 214 213 214 218 221 220 220 219 216 214 214 215 216 219 224 229 233 236 238 240 242 243 244 245 246 246 247 248 250 253 256
286 163 147 165 173 172 180 186 185 188 189 188 183 176 185 199 202 202 205 212 221 228 229 222 213 205 201 200 195 193 198 201 198 198 200 201 204 207 208 209 205 202 203 205 206 208 208 211 216 217 214 213 214 214 215 215 213 213 218 223 222 221 220 217 216 215 215 217 220 225 231 235 236 236 236 237 239 241 243 244 243 243 243 245 248 252
127 150 145 148 149 154 176 181 180 195 195 184 175 176 183 193 199 202 208 212 210 213 216 216 227 228 205 204 197 189 193 198 199 202 203 201 203 209 213 216 214 210 209 209 209 209 209 212 217 218 213 210 214 218 217 216 214 213 219 225 225 223 222 218 216 215 216 218 222 226 230 232 233 233 232 233 235 239 241 242 241 241 241 242 245 248
121 143 151 150 133 129 161 175 168 175 184 184 182 182 183 184 189 195 202 202 196 187 174 191 210 216 200 200 195 185 186 195 199 200 201 201 205 213 218 221 222 219 216 215 216 216 214 214 215 214 211 211 217 222 220 218 215 214 218 224 227 226 224 221 218 217 218 220 222 225 229 230 232 233 232 231 232 235 238 239 239 239 238 239 241 245
120 144 157 160 140 122 148 169 168 161 162 174 187 191 195 192 183 186 189 188 186 175 156 172 196 203 198 198 194 186 185 192 198 200 202 203 208 216 223 226 228 227 224 223 223 222 219 217 216 214 212 215 219 222 222 220 218 216 218 223 226 228 227 224 221 220 221 223 223 226 228 230 232 234 232 228 227 231 234 235 236 236 235 235 238 243
99 144 159 160 146 126 141 155 158 157 148 151 177 190 198 189 169 174 180 183 190 186 168 164 180 189 193 195 195 191 188 189 193 197 203 208 213 220 223 226 229 228 228 230 230 228 225 224 224 221 219 221 224 222 219 217 215 216 219 222 225 229 230 227 225 225 226 226 226 228 229 230 230 232 230 226 225 227 231 233 233 232 231 233 237 242
94 136 149 150 141 132 139 149 153 155 127 129 152 185 196 185 167 161 161 167 183 187 175 164 172 181 187 189 194 195 190 188 191 196 202 210 219 226 229 231 230 228 230 233 235 234 233 233 233 230 228 231 228 221 217 214 212 214 219 223 226 229 231 229 228 229 230 229 230 232 233 233 230 227 227 225 223 225 228 229 230 229 229 233 239 243
90 131 134 130 134 137 127 134 144 126 110 116 125 151 176 182 180 171 159 156 165 172 169 167 171 177 183 189 194 194 190 190 192 195 202 211 222 231 235 236 236 236 239 244 245 245 245 244 240 234 233 236 233 224 217 213 214 217 221 225 227 229 231 231 230 231 232 233 233 235 238 238 233 226 224 224 221 221 224 225 225 226 230 235 239 240
70 122 126 115 115 127 114 105 114 114 108 110 114 123 147 169 181 186 173 160 161 168 171 172 171 172 181 193 195 187 184 190 195 198 203 212 221 229 235 236 240 245 250 251 251 251 250 244 236 230 229 229 227 224 220 217 217 218 222 227 229 230 231 231 231 234 235 234 234 237 241 242 235 223 217 218 216 215 218 221 221 223 230 234 234 233
65 94 122 119 102 113 117 108 104 106 101 106 110 117 139 156 174 195 193 176 170 172 172 174 174 175 180 190 196 191 189 196 201 199 201 207 213 219 225 227 228 235 240 236 232 233 234 229 223 223 225 224 221 219 220 221 221 221 225 229 231 231 232 231 231 234 238 238 235 236 241 242 233 218 209 207 207 207 212 216 219 224 229 230 229 225
70 77 108 124 111 110 114 102 82 87 102 111 111 115 135 141 156 184 194 190 185 181 176 176 179 182 185 191 201 202 203 207 204 197 198 208 214 220 224 222 220 225 228 224 220 219 220 220 219 220 224 226 224 222 222 222 222 225 229 232 233 233 232 232 232 234 240 245 241 238 241 238 223 210 202 199 197 200 208 214 218 224 229 228 225 217
68 78 100 111 104 105 109 94 83 95 100 103 105 114 140 144 150 167 183 192 191 191 190 187 186 190 193 199 205 202 202 208 206 199 202 210 217 223 228 226 225 229 230 226 221 217 215 218 221 224 227 227 225 226 228 230 230 232 233 232 233 233 230 232 237 241 247 255 252 248 249 240 221 205 195 192 193 197 207 214 218 223 226 224 219 213
89 82 89 95 95 106 114 101 94 104 107 106 104 110 148 167 165 172 176 173 181 193 200 199 200 201 200 203 206 203 205 209 207 205 208 212 218 225 226 225 225 226 226 223 219 217 218 219 220 225 229 228 226 227 232 237 240 237 231 227 228 229 227 229 237 245 251 254 251 250 249 238 224 210 194 187 192 199 206 214 217 219 219 214 211 211
135 89 82 92 97 106 113 107 100 110 119 119 113 116 156 174 182 192 188 169 183 198 200 201 207 209 207 206 206 207 210 210 208 210 214 223 238 244 242 243 239 231 225 222 220 221 225 226 226 228 230 230 228 223 226 237 243 234 222 219 222 226 224 224 231 240 245 246 248 249 240 227 222 217 203 191 193 200 206 211 213 212 209 207 207 211
168 123 99 107 110 111 118 114 106 122 136 135 135 147 172 185 205 225 230 233 231 224 215 211 209 207 209 208 203 205 209 210 212 216 216 222 237 246 250 253 247 239 236 233 232 233 233 235 237 237 236 235 231 221 218 233 247 241 224 216 217 220 219 221 231 237 238 239 243 241 229 215 213 217 213 201 195 198 206 210 209 206 203 204 208 212
178 148 120 129 137 132 132 134 130 144 147 145 151 164 165 176 207 247 270 275 273 261 248 239 225 213 212 207 202 205 210 211 213 219 221 222 226 234 244 246 239 238 239 236 237 238 237 238 239 240 242 241 236 224 214 219 236 243 231 215 211 219 221 222 230 235 233 235 236 228 218 213 212 214 213 206 198 199 205 207 203 201 203 207 211 210
184 162 125 139 158 149 141 149 151 154 159 162 164 167 169 190 239 270 278 283 289 282 264 254 242 226 216 206 202 206 210 212 217 225 231 232 230 230 238 245 248 249 238 227 229 232 233 234 233 235 241 243 240 230 216 214 228 236 224 211 213 221 223 223 228 231 229 231 231 222 215 215 214 212 211 208 203 202 204 203 199 200 206 213 212 207
185 174 141 144 161 149 140 147 149 155 170 181 190 197 214 248 256 261 267 271 277 275 264 260 253 239 228 216 207 205 207 212 222 230 232 231 230 229 232 236 243 244 234 230 234 234 232 232 231 232 236 239 242 235 218 214 227 226 213 215 222 219 217 220 223 223 226 230 231 225 218 217 215 211 210 210 206 202 200 198 198 203 210 213 210 204
180 184 184 184 174 163 162 170 173 172 175 192 221 237 254 266 263 261 266 271 276 275 266 259 257 251 244 235 223 214 209 212 220 226 227 226 226 227 228 231 234 236 235 236 236 234 234 232 230 232 235 238 245 241 221 216 227 225 216 217 217 211 215 221 217 215 224 233 235 229 222 218 215 211 210 210 208 202 198 197 200 206 209 207 205 203
177 183 185 183 178 176 182 190 201 210 216 225 236 245 257 261 259 260 265 272 280 284 278 267 260 257 254 247 238 230 222 218 218 219 219 223 225 225 227 230 229 228 230 228 222 221 229 230 229 233 236 240 250 249 230 221 225 226 221 216 211 210 218 222 215 214 224 234 236 231 224 219 215 211 209 211 209 203 201 203 207 209 204 200 199 200
180 182 183 181 179 179 185 197 213 223 230 237 241 247 252 252 254 258 262 271 283 290 288 279 266 259 258 252 243 235 229 224 223 221 220 221 222 224 227 228 226 227 231 230 225 223 227 232 234 237 239 244 252 250 237 225 220 219 219 219 217 217 218 217 213 214 224 233 234 229 223 218 214 210 209 210 209 205 206 211 213 207 200 196 194 196
189 188 190 194 195 196 201 212 223 226 230 234 237 241 242 244 248 252 255 265 279 284 287 285 276 266 258 249 241 236 227 218 216 217 217 216 217 221 226 227 227 230 232 231 229 228 227 231 236 239 242 245 248 245 235 223 216 216 216 215 220 221 216 212 213 217 225 233 232 226 222 217 213 211 210 208 208 209 214 217 212 204 200 196 194 197
203 203 203 207 212 216 216 218 223 228 230 232 237 242 243 242 244 246 249 255 265 272 277 281 279 271 257 240 232 228 219 208 204 206 209 213 216 219 223 226 229 233 234 233 233 235 234 234 236 239 243 245 246 244 232 219 217 221 217 215 224 225 212 205 213 221 226 232 230 223 220 217 214 213 212 208 209 214 219 219 211 203 201 199 197 201
Height
3026 3026 3023 3022 3025 3031 3036 3040 3045 3050 3055 3059 3061 3064 3067 3070 3072 3076 3079 3082 3086 3087 3088 3090 3093 3095 3097 3098 3101 3103 3104 3106 3107 3109 3111 3112 3113 3115 3116 3118 3119 3120 3121 3123 3124 3125 3125 3126 3127 3128 3129 3130 3131 3133 3134 3136 3138 3140 3142 3143 3144 3146 3147 3148 3150 3151 3151 3151 3151 3152 3152 3152 3153 3153 3154 3154 3155 3156 3157 3158 3159 3161 3162 3163 3164 3164
3023 3020 3018 3022 3029 3035 3039 3042 3046 3050 3054 3058 3060 3064 3066 3069 3072 3076 3078 3081 3084 3086 3087 3089 3091 3094 3095 3097 3098 3100 3102 3104 3106 3108 3109 3110 3112 3113 3114 3115 3117 3118 3119 3121 3122 3123 3123 3124 3125 3126 3127 3128 3130 3132 3133 3135 3137 3139 3141 3142 3144 3145 3146 3148 3149 3149 3150 3150 3150 3150 3151 3151 3152 3152 3153 3154 3155 3156 3157 3158 3160 3161 3162 3163 3163 3164
3017 3015 3018 3026 3031 3036 3040 3043 3046 3050 3054 3056 3059 3062 3065 3068 3072 3075 3078 3080 3083 3084 3086 3088 3090 3092 3093 3094 3095 3097 3100 3102 3104 3106 3107 3109 3110 3111 3112 3113 3114 3116 3117 3119 3120 3121 3121 3122 3123 3125 3126 3127 3129 3131 3133 3134 3136 3138 3139 3141 3142 3144 3145 3146 3147 3148 3148 3148 3148 3148 3149 3150 3151 3151 3152 3153 3154 3155 3157 3158 3159 3161 3162 3162 3163 3163
3013 3014 3020 3027 3031 3035 3039 3041 3045 3049 3052 3055 3057 3060 3063 3067 3071 3074 3076 3079 3082 3083 3085 3086 3088 3089 3090 3091 3093 3095 3098 3100 3102 3104 3106 3107 3108 3109 3110 3111 3112 3114 3115 3116 3118 3119 3120 3121 3122 3123 3125 3126 3128 3130 3132 3133 3135 3137 3139 3140 3141 3142 3143 3144 3145 3145 3146 3146 3147 3147 3148 3149 3149 3151 3152 3153 3154 3155 3156 3158 3159 3161 3161 3162 3162 3163
3012 3015 3021 3026 3030 3034 3037 3040 3043 3046 3049 3053 3056 3059 3062 3066 3070 3073 3076 3079 3081 3082 3083 3084 3086 3086 3086 3088 3090 3093 3095 3098 3100 3102 3103 3105 3105 3107 3108 3109 3111 3112 3114 3115 3116 3117 3118 3119 3120 3122 3124 3125 3127 3129 3131 3133 3134 3136 3137 3138 3139 3140 3141 3142 3143 3144 3145 3145 3145 3146 3147 3148 3148 3150 3152 3152 3153 3155 3156 3158 3159 3160 3161 3161 3162 3162
3013 3017 3021 3025 3029 3032 3035 3038 3041 3044 3048 3052 3055 3058 3062 3066 3069 3073 3076 3077 3078 3079 3079 3081 3083 3083 3083 3085 3088 3090 3093 3095 3097 3099 3100 3102 3103 3105 3106 3108 3110 3111 3112 3114 3115 3116 3117 3118 3119 3121 3123 3125 3127 3129 3130 3132 3134 3135 3136 3137 3138 3139 3140 3141 3142 3143 3143 3144 3144 3145 3146 3147 3148 3149 3151 3151 3153 3155 3156 3157 3159 3160 3160 3161 3161 3162
3012 3017 3020 3023 3027 3030 3034 3036 3039 3043 3048 3050 3053 3058 3063 3066 3068 3071 3074 3075 3075 3076 3077 3079 3080 3081 3081 3082 3085 3088 3091 3092 3094 3096 3097 3099 3101 3102 3104 3105 3107 3108 3110 3111 3113 3114 3116 3117 3118 3120 3122 3124 3127 3128 3130 3132 3133 3134 3135 3136 3137 3138 3138 3140 3141 3142 3142 3142 3142 3142 3144 3145 3147 3149 3150 3151 3153 3154 3156 3157 3159 3160 3160 3160 3161 3161
3009 3015 3018 3021 3025 3028 3030 3033 3038 3042 3046 3049 3053 3059 3063 3065 3067 3069 3071 3073 3073 3075 3077 3077 3078 3079 3079 3080 3083 3085 3087 3088 3090 3092 3094 3096 3098 3100 3101 3102 3104 3106 3107 3109 3111 3112 3114 3116 3118 3119 3122 3124 3126 3128 3129 3131 3132 3133 3134 3135 3136 3137 3138 3139 3140 3141 3140 3139 3139 3140 3142 3144 3146 3148 3150 3151 3153 3154 3156 3157 3158 3159 3160 3160 3160 3160
3008 3013 3015 3019 3023 3025 3027 3032 3037 3042 3046 3049 3055 3060 3063 3065 3067 3068 3069 3070 3072 3074 3074 3073 3076 3078 3077 3078 3081 3082 3082 3084 3086 3089 3092 3093 3096 3098 3099 3100 3101 3104 3106 3107 3109 3111 3113 3115 3117 3119 3122 3124 3125 3127 3129 3130 3131 3132 3132 3134 3135 3136 3137 3138 3139 3139 3138 3138 3139 3141 3143 3144 3146 3148 3149 3151 3153 3155 3156 3157 3158 3159 3159 3160 3160 3160
3010 3012 3016 3019 3021 3023 3027 3033 3038 3042 3045 3050 3057 3060 3063 3065 3066 3067 3068 3069 3072 3072 3069 3070 3073 3076 3076 3075 3076 3077 3077 3080 3083 3087 3089 3091 3094 3095 3096 3098 3100 3102 3103 3105 3108 3110 3112 3114 3116 3119 3121 3122 3124 3125 3127 3128 3130 3131 3132 3133 3134 3135 3136 3137 3138 3137 3136 3138 3140 3142 3143 3144 3146 3147 3148 3150 3153 3155 3156 3157 3158 3159 3159 3159 3159 3159
3011 3014 3018 3018 3020 3023 3029 3034 3039 3042 3046 3052 3056 3059 3061 3063 3064 3066 3067 3069 3071 3067 3064 3068 3072 3074 3074 3071 3070 3072 3074 3077 3081 3084 3087 3089 3090 3091 3093 3096 3098 3100 3101 3103 3106 3108 3111 3113 3116 3118 3119 3121 3122 3124 3126 3127 3128 3129 3131 3132 3132 3134 3135 3136 3137 3136 3136 3138 3140 3141 3142 3143 3145 3147 3149 3151 3153 3155 3156 3157 3157 3158 3158 3158 3158 3158
3010 3013 3015 3016 3020 3024 3029 3034 3038 3042 3047 3051 3055 3057 3060 3061 3063 3065 3066 3067 3067 3062 3062 3067 3070 3073 3071 3066 3067 3070 3073 3076 3079 3081 3083 3084 3086 3088 3090 3093 3096 3098 3100 3101 3104 3106 3109 3111 3114 3116 3117 3119 3121 3123 3125 3126 3127 3129 3130 3130 3131 3132 3134 3135 3136 3136 3136 3138 3139 3139 3139 3141 3144 3147 3149 3151 3153 3154 3155 3156 3157 3157 3157 3157 3157 3158
3008 3010 3012 3016 3020 3023 3027 3032 3037 3041 3044 3048 3051 3054 3057 3059 3061 3063 3063 3063 3062 3060 3063 3066 3069 3069 3066 3064 3067 3070 3071 3074 3076 3079 3081 3082 3083 3085 3087 3091 3094 3096 3098 3100 3102 3105 3107 3110 3112 3114 3116 3118 3120 3122 3124 3125 3126 3128 3129 3130 3131 3131 3132 3134 3135 3135 3136 3137 3138 3138 3138 3141 3144 3146 3148 3150 3152 3154 3155 3155 3156 3156 3156 3156 3157 3157
3006 3009 3012 3015 3018 3020 3024 3026 3029 3033 3037 3042 3045 3047 3050 3053 3057 3059 3060 3060 3060 3060 3062 3065 3067 3066 3063 3063 3065 3066 3068 3071 3074 3077 3080 3081 3082 3084 3086 3089 3092 3094 3096 3098 3101 3103 3106 3108 3111 3113 3115 3117 3119 3121 3123 3125 3126 3127 3129 3130 3130 3131 3132 3134 3135 3135 3135 3136 3137 3137 3139 3142 3145 3146 3148 3150 3152 3153 3154 3154 3154 3154 3155 3155 3156 3156
3003 3006 3007 3010 3013 3016 3019 3022 3025 3029 3034 3039 3042 3045 3047 3048 3051 3055 3057 3058 3059 3059 3061 3064 3064 3062 3060 3062 3062 3063 3066 3070 3073 3075 3077 3079 3080 3083 3086 3089 3090 3092 3095 3097 3099 3102 3105 3107 3109 3111 3114 3116 3118 3120 3122 3124 3126 3127 3128 3129 3130 3131 3132 3133 3134 3135 3136 3136 3138 3139 3141 3143 3145 3147 3148 3150 3151 3152 3153 3153 3153 3153 3154 3154 3155 3156
3003 3003 3004 3008 3012 3014 3017 3022 3027 3031 3035 3039 3042 3045 3045 3046 3049 3052 3053 3055 3056 3058 3059 3060 3059 3057 3058 3060 3060 3061 3064 3068 3070 3072 3074 3076 3078 3081 3084 3086 3088 3090 3093 3096 3098 3100 3103 3106 3108 3110 3113 3115 3117 3120 3121 3123 3125 3126 3127 3128 3129 3131 3131 3132 3133 3134 3136 3137 3139 3140 3142 3143 3145 3147 3148 3149 3150 3151 3152 3152 3152 3152 3153 3153 3154 3155
3003 3004 3005 3009 3012 3014 3017 3022 3027 3030 3032 3036 3039 3040 3042 3047 3050 3051 3051 3052 3054 3056 3056 3055 3055 3056 3057 3058 3057 3058 3062 3065 3067 3069 3072 3074 3076 3079 3082 3084 3087 3088 3091 3094 3096 3099 3102 3104 3106 3109 3111 3114 3116 3118 3120 3122 3124 3125 3126 3127 3129 3130 3131 3132 3132 3134 3136 3137 3139 3140 3142 3144 3145 3146 3148 3149 3150 3150 3151 3151 3151 3152 3152 3153 3154 3154
3002 3004 3006 3007 3010 3014 3018 3022 3027 3030 3032 3034 3035 3038 3043 3049 3050 3050 3051 3052 3054 3054 3053 3052 3053 3054 3055 3056 3054 3056 3060 3063 3065 3068 3070 3073 3075 3077 3080 3083 3085 3087 3090 3093 3095 3098 3100 3102 3105 3107 3110 3113 3116 3118 3119 3121 3123 3124 3125 3127 3128 3129 3130 3131 3132 3133 3135 3137 3138 3140 3142 3143 3144 3146 3147 3148 3149 3150 3150 3150 3151 3151 3151 3152 3152 3153
3002 3003 3005 3007 3010 3014 3018 3022 3026 3028 3031 3033 3036 3039 3043 3045 3046 3048 3050 3051 3052 3053 3052 3051 3051 3051 3052 3052 3052 3054 3058 3060 3063 3066 3068 3070 3072 3074 3077 3081 3083 3085 3089 3091 3093 3095 3098 3101 3103 3106 3109 3112 3114 3116 3118 3119 3121 3123 3124 3126 3127 3128 3129 3130 3132 3133 3134 3136 3138 3139 3141 3142 3144 3145 3147 3148 3148 3149 3149 3150 3150 3150 3150 3151 3151 3152
3001 3002 3004 3007 3010 3013 3017 3019 3020 3022 3028 3033 3037 3039 3040 3042 3044 3046 3048 3048 3049 3051 3051 3050 3051 3050 3049 3051 3052 3053 3056 3058 3060 3063 3066 3068 3069 3071 3074 3078 3081 3084 3087 3089 3091 3094 3097 3100 3102 3105 3108 3111 3113 3115 3116 3118 3120 3121 3123 3125 3126 3127 3128 3129 3130 3132 3134 3135 3137 3139 3140 3142 3143 3145 3146 3147 3148 3148 3148 3149 3149 3149 3149 3150 3150 3150
3000 3001 3002 3005 3009 3012 3013 3012 3013 3017 3022 3028 3031 3033 3036 3040 3042 3045 3047 3047 3046 3048 3049 3050 3050 3049 3048 3050 3051 3052 3054 3056 3059 3061 3064 3066 3067 3069 3073 3076 3079 3082 3085 3088 3090 3093 3096 3099 3101 3104 3107 3109 3111 3113 3115 3117 3119 3120 3122 3123 3125 3126 3127 3128 3130 3131 3133 3135 3136 3138 3140 3141 3143 3144 3145 3146 3146 3147 3147 3148 3148 3148 3148 3149 3149 3149
2999 3000 3002 3004 3006 3007 3008 3010 3014 3018 3022 3025 3028 3031 3034 3038 3040 3043 3045 3045 3045 3046 3046 3048 3049 3047 3048 3049 3050 3052 3054 3056 3058 3061 3062 3064 3066 3068 3071 3075 3078 3081 3084 3087 3090 3093 3095 3098 3100 3103 3105 3107 3109 3111 3114 3116 3117 3119 3120 3122 3123 3125 3126 3127 3129 3130 3132 3133 3135 3137 3139 3140 3141 3142 3143 3144 3145 3146 3146 3146 3147 3147 3147 3147 3147 3147
2999 3000 3001 3002 3004 3007 3010 3013 3016 3021 3025 3028 3031 3033 3035 3037 3038 3040 3042 3043 3044 3045 3045 3045 3046 3046 3047 3048 3049 3050 3053 3055 3058 3060 3062 3064 3065 3067 3070 3073 3077 3080 3083 3087 3089 3092 3094 3096 3099 3101 3103 3105 3108 3110 3113 3114 3116 3118 3119 3121 3122 3123 3125 3126 3128 3129 3131 3132 3134 3136 3137 3139 3140 3141 3142 3142 3143 3144 3144 3145 3145 3145 3145 3146 3146 3146
3000 3000 3001 3002 3005 3009 3011 3014 3018 3022 3026 3028 3030 3031 3033 3035 3037 3039 3041 3042 3042 3043 3043 3044 3046 3046 3046 3047 3048 3049 3050 3053 3056 3058 3061 3063 3065 3067 3069 3072 3076 3079 3082 3085 3088 3090 3092 3094 3097 3100 3102 3104 3106 3109 3111 3113 3115 3116 3118 3119 3121 3122 3124 3125 3126 3128 3129 3131 3133 3134 3136 3137 3138 3139 3140 3141 3141 3142 3143 3143 3144 3144 3144 3144 3144 3145
2999 3000 3001 3001 3004 3008 3011 3013 3017 3020 3023 3025 3026 3029 3031 3033 3036 3038 3039 3040 3040 3041 3041 3043 3045 3045 3045 3047 3048 3048 3050 3052 3055 3058 3060 3062 3064 3066 3068 3071 3075 3077 3080 3083 3086 3088 3090 3092 3095 3098 3100 3103 3105 3108 3110 3111 3113 3115 3117 3118 3119 3121 3122 3123 3125 3127 3128 3130 3132 3133 3134 3135 3136 3137 3138 3139 3139 3140 3141 3141 3142 3142 3142 3142 3142 3143
2998 2999 3000 2999 3000 3004 3005 3006 3008 3012 3017 3021 3023 3027 3030 3031 3033 3035 3037 3038 3038 3039 3040 3041 3043 3044 3045 3046 3048 3049 3051 3053 3055 3057 3059 3062 3064 3066 3067 3070 3073 3076 3078 3081 3084 3086 3088 3091 3094 3097 3099 3102 3104 3107 3109 3110 3112 3114 3115 3116 3117 3119 3120 3122 3124 3126 3127 3129 3130 3131 3133 3133 3134 3135 3136 3137 3137 3138 3139 3139 3140 3140 3140 3140 3141 3141
2997 2997 2998 2998 2999 3001 3003 3004 3006 3010 3015 3019 3021 3025 3028 3029 3031 3033 3035 3036 3037 3038 3039 3040 3042 3043 3044 3046 3047 3049 3051 3053 3055 3057 3059 3061 3063 3065 3067 3069 3072 3075 3077 3080 3083 3085 3087 3090 3094 3096 3098 3100 3103 3105 3107 3109 3111 3112 3114 3115 3116 3117 3119 3121 3123 3124 3126 3127 3128 3130 3131 3132 3132 3133 3134 3135 3135 3136 3137 3137 3138 3138 3138 3139 3139 3139
2997 2996 2997 2998 3000 3003 3005 3006 3009 3012 3016 3019 3021 3024 3026 3028 3030 3031 3033 3034 3036 3037 3038 3040 3041 3042 3043 3045 3046 3048 3050 3053 3055 3057 3059 3061 3062 3064 3067 3069 3071 3074 3076 3079 3082 3084 3087 3090 3093 3095 3097 3099 3101 3104 3106 3108 3109 3111 3112 3113 3114 3116 3118 3119 3121 3123 3124 3125 3126 3127 3128 3129 3130 3131 3132 3133 3134 3134 3135 3135 3136 3136 3137 3137 3137 3137
2996 2995 2996 2998 3000 3003 3005 3007 3009 3013 3016 3019 3022 3023 3025 3027 3028 3030 3032 3034 3035 3036 3038 3039 3040 3041 3043 3044 3046 3047 3049 3051 3054 3057 3059 3060 3062 3064 3066 3068 3070 3072 3074 3077 3080 3083 3086 3089 3092 3094 3096 3098 3100 3103 3104 3105 3107 3109 3110 3111 3113 3115 3117 3118 3120 3121 3122 3123 3124 3125 3126 3127 3128 3129 3130 3131 3132 3132 3133 3133 3134 3135 3135 3135 3135 3136
2996 2995 2996 2998 2999 3002 3004 3007 3009 3012 3016 3019 3021 3022 3024 3026 3027 3029 3031 3033 3034 3036 3037 3039 3040 3040 3042 3043 3044 3046 3048 3051 3054 3056 3058 3060 3062 3063 3065 3067 3069 3071 3073 3076 3079 3082 3086 3089 3091 3093 3095 3097 3099 3101 3102 3103 3105 3108 3109 3111 3113 3114 3115 3117 3118 3120 3121 3122 3123 3124 3125 3126 3127 3128 3129 3130 3130 3130 3131 3132 3132 3133 3133 3134 3134 3134
2995 2995 2996 2997 2999 3001 3004 3006 3009 3012 3015 3018 3020 3021 3023 3025 3026 3028 3030 3031 3033 3035 3036 3038 3039 3040 3041 3042 3044 3046 3048 3050 3053 3055 3057 3059 3061 3062 3063 3065 3067 3070 3072 3075 3078 3081 3085 3088 3090 3092 3094 3096 3098 3099 3100 3101 3104 3106 3108 3109 3111 3113 3114 3116 3117 3118 3120 3121 3121 3122 3123 3124 3125 3126 3127 3128 3128 3129 3129 3130 3130 3131 3131 3132 3132 3132
2995 2995 2996 2998 2999 3002 3004 3007 3010 3012 3015 3018 3019 3020 3022 3024 3025 3027 3029 3031 3032 3034 3035 3037 3039 3040 3041 3042 3044 3045 3047 3050 3052 3054 3057 3059 3060 3061 3063 3064 3066 3069 3072 3074 3077 3080 3083 3086 3088 3090 3093 3095 3096 3097 3098 3099 3102 3104 3106 3108 3110 3112 3113 3114 3115 3117 3118 3119 3120 3121 3121 3122 3124 3125 3126 3126 3127 3127 3128 3128 3128 3129 3129 3130 3130 3131
2995 2996 2997 2999 3001 3003 3005 3008 3010 3012 3015 3017 3019 3020 3022 3024 3025 3027 3028 3030 3032 3033 3035 3036 3038 3040 3041 3042 3044 3045 3047 3049 3052 3055 3057 3059 3060 3061 3062 3065 3067 3069 3072 3074 3076 3079 3082 3084 3087 3089 3091 3093 3094 3095 3096 3098 3100 3103 3105 3107 3108 3110 3111 3112 3113 3114 3115 3116 3117 3118 3119 3120 3122 3123 3124 3124 3125 3125 3125 3126 3126 3127 3128 3128 3129 3129
2997 2997 2998 3000 3002 3004 3006 3008 3010 3013 3016 3017 3018 3020 3022 3024 3025 3026 3028 3029 3031 3033 3034 3036 3037 3040 3042 3044 3045 3046 3048 3050 3052 3055 3058 3059 3060 3061 3063 3065 3067 3069 3071 3073 3075 3078 3080 3083 3085 3087 3089 3091 3092 3093 3095 3096 3098 3101 3102 3104 3105 3107 3108 3109 3111 3112 3113 3114 3115 3116 3117 3118 3120 3121 3122 3122 3123 3123 3123 3124 3124 3125 3126 3127 3127 3128
2998 2998 2999 3000 3002 3004 3006 3006 3009 3014 3016 3017 3018 3020 3022 3024 3025 3026 3027 3028 3030 3032 3034 3036 3038 3040 3043 3045 3046 3048 3049 3051 3053 3055 3057 3059 3060 3062 3063 3065 3067 3069 3070 3072 3074 3076 3079 3081 3083 3085 3087 3089 3090 3091 3092 3094 3096 3097 3099 3100 3102 3103 3105 3106 3108 3109 3110 3112 3113 3114 3115 3116 3117 3118 3119 3120 3120 3120 3121 3121 3122 3123 3124 3125 3126 3126
2998 2999 2999 3000 3002 3004 3005 3006 3009 3014 3016 3017 3019 3020 3022 3023 3024 3025 3027 3028 3030 3032 3034 3036 3038 3040 3042 3044 3046 3047 3049 3051 3053 3054 3056 3058 3060 3061 3063 3064 3066 3068 3070 3072 3074 3076 3078 3079 3081 3083 3085 3087 3088 3088 3090 3092 3093 3094 3095 3097 3098 3100 3102 3103 3105 3106 3107 3109 3110 3111 3112 3113 3114 3115 3116 3117 3118 3118 3119 3119 3121 3122 3123 3124 3125 3125
2999 2999 3000 3001 3002 3004 3005 3006 3009 3013 3016 3018 3020 3021 3022 3023 3024 3025 3027 3028 3030 3032 3034 3036 3038 3040 3041 3043 3045 3046 3048 3050 3051 3053 3055 3057 3059 3061 3062 3064 3066 3068 3069 3071 3073 3074 3076 3077 3079 3081 3083 3084 3085 3087 3088 3090 3091 3092 3093 3094 3096 3097 3099 3100 3101 3103 3104 3104 3106 3108 3109 3110 3111 3112 3113 3114 3115 3116 3117 3118 3119 3120 3121 3122 3123 3124
3001 3001 3000 3001 3003 3004 3005 3007 3010 3014 3017 3018 3020 3021 3022 3023 3024 3025 3027 3029 3030 3032 3033 3036 3037 3039 3041 3042 3044 3046 3048 3049 3051 3053 3055 3056 3058 3059 3061 3062 3064 3066 3067 3068 3070 3072 3073 3074 3076 3079 3080 3081 3082 3084 3086 3088 3089 3090 3091 3092 3094 3095 3096 3097 3099 3101 3101 3101 3104 3106 3106 3107 3109 3110 3110 3112 3113 3114 3115 3117 3118 3119 3120 3121 3122 3122
3003 3003 3002 3002 3004 3005 3006 3008 3012 3015 3017 3018 3019 3021 3022 3023 3023 3025 3027 3029 3030 3031 3033 3035 3037 3039 3041 3042 3044 3046 3048 3050 3051 3053 3054 3055 3056 3058 3059 3061 3062 3064 3065 3067 3068 3070 3071 3073 3074 3077 3078 3079 3080 3082 3084 3085 3086 3088 3089 3090 3091 3092 3094 3096 3098 3099 3099 3100 3102 3103 3103 3104 3106 3106 3107 3109 3110 3112 3113 3115 3116 3117 3118 3119 3120 3121
3005 3005 3005 3005 3006 3007 3008 3010 3013 3015 3017 3018 3019 3020 3022 3023 3023 3025 3027 3028 3029 3031 3033 3035 3037 3038 3040 3042 3044 3046 3048 3050 3052 3053 3054 3055 3056 3057 3058 3059 3061 3062 3064 3065 3066 3067 3069 3070 3072 3074 3076 3077 3078 3080 3081 3082 3084 3085 3086 3087 3089 3090 3092 3095 3096 3097 3098 3099 3100 3101 3101 3103 3104 3103 3103 3105 3107 3109 3111 3112 3114 3116 3117 3118 3119 3120
3007 3007 3007 3007 3009 3010 3011 3012 3014 3016 3017 3018 3019 3020 3021 3022 3023 3025 3027 3028 3029 3031 3032 3034 3036 3037 3039 3041 3043 3045 3047 3050 3051 3052 3053 3054 3055 3056 3057 3058 3059 3061 3062 3063 3064 3065 3066 3068 3070 3072 3073 3075 3075 3076 3079 3080 3081 3082 3083 3085 3087 3089 3091 3093 3094 3095 3097 3098 3098 3099 3099 3100 3101 3101 3100 3101 3104 3106 3108 3111 3113 3114 3115 3117 3118 3119
3008 3009 3009 3010 3011 3012 3013 3014 3016 3017 3018 3019 3020 3021 3021 3022 3024 3025 3026 3027 3029 3031 3032 3033 3035 3036 3038 3040 3043 3045 3047 3048 3050 3051 3052 3053 3054 3055 3056 3057 3058 3059 3061 3062 3063 3064 3065 3066 3068 3069 3071 3072 3072 3074 3077 3079 3079 3079 3081 3083 3085 3087 3089 3091 3092 3093 3094 3095 3096 3097 3097 3098 3100 3101 3101 3100 3101 3104 3107 3109 3111 3112 3114 3115 3117 3118
3008 3009 3011 3011 3012 3013 3014 3015 3016 3018 3018 3019 3020 3021 3022 3023 3024 3025 3026 3027 3028 3029 3031 3032 3034 3035 3037 3039 3041 3044 3045 3047 3048 3049 3050 3051 3052 3053 3054 3055 3056 3058 3059 3060 3061 3063 3064 3065 3066 3067 3068 3069 3070 3072 3075 3077 3078 3078 3079 3081 3083 3085 3087 3089 3090 3091 3092 3093 3094 3095 3095 3096 3098 3100 3101 3100 3101 3103 3105 3107 3109 3111 3113 3114 3115 3117
3009 3010 3011 3012 3013 3014 3015 3015 3016 3017 3018 3020 3021 3022 3022 3023 3024 3025 3025 3026 3027 3028 3029 3031 3032 3034 3036 3038 3040 3042 3044 3046 3047 3048 3049 3050 3051 3052 3053 3054 3055 3057 3058 3059 3060 3061 3062 3063 3064 3065 3066 3067 3068 3069 3072 3075 3076 3076 3077 3079 3082 3084 3085 3087 3088 3089 3090 3091 3092 3093 3094 3095 3096 3098 3099 3099 3100 3102 3104 3106 3108 3110 3111 3113 3114 3116
3009 3010 3011 3012 3013 3014 3015 3016 3016 3017 3019 3020 3021 3022 3023 3024 3024 3025 3025 3025 3026 3027 3028 3030 3031 3033 3035 3037 3038 3039 3042 3044 3046 3047 3048 3049 3050 3051 3052 3053 3054 3055 3056 3058 3059 3060 3061 3062 3062 3063 3064 3065 3067 3068 3069 3072 3074 3074 3076 3078 3080 3082 3083 3085 3086 3087 3088 3090 3090 3091 3092 3093 3094 3096 3097 3099 3099 3101 3103 3104 3106 3108 3110 3112 3113 3114
3009 3010 3011 3012 3014 3015 3016 3016 3017 3018 3019 3020 3021 3022 3023 3024 3025 3025 3025 3025 3026 3027 3028 3029 3031 3032 3034 3035 3036 3038 3040 3042 3044 3045 3046 3047 3048 3049 3050 3051 3053 3054 3055 3056 3057 3058 3059 3060 3060 3061 3062 3063 3065 3066 3067 3069 3071 3073 3075 3077 3078 3079 3081 3082 3084 3086 3087 3087 3088 3089 3090 3091 3093 3094 3096 3097 3098 3100 3101 3103 3105 3107 3109 3111 3112 3113
3009 3010 3011 3012 3014 3015 3016 3016 3017 3018 3019 3020 3021 3022 3023 3024 3025 3025 3025 3025 3025 3026 3027 3029 3030 3031 3032 3033 3035 3037 3038 3040 3042 3043 3044 3045 3046 3047 3048 3049 3051 3052 3053 3055 3055 3056 3057 3058 3059 3060 3061 3062 3063 3064 3065 3067 3069 3071 3073 3074 3075 3077 3078 3080 3081 3083 3084 3085 3086 3087 3088 3090 3091 3093 3095 3096 3097 3098 3100 3101 3103 3105 3107 3109 3111 3112
3009 3010 3011 3012 3014 3015 3016 3017 3018 3019 3019 3020 3021 3022 3023 3024 3024 3024 3024 3025 3025 3026 3027 3028 3029 3030 3031 3032 3034 3035 3036 3038 3039 3041 3042 3043 3044 3045 3046 3047 3049 3050 3051 3052 3053 3054 3056 3057 3058 3058 3059 3060 3061 3062 3063 3065 3066 3069 3071 3072 3073 3074 3076 3077 3079 3080 3082 3083 3084 3085 3087 3088 3090 3092 3093 3095 3096 3097 3099 3100 3102 3104 3106 3108 3109 3111
3009 3010 3011 3012 3014 3015 3016 3017 3018 3019 3019 3020 3021 3022 3023 3023 3023 3023 3024 3024 3025 3025 3026 3027 3028 3029 3030 3031 3032 3033 3034 3035 3037 3038 3039 3040 3041 3043 3044 3045 3046 3048 3049 3050 3052 3053 3054 3055 3056 3057 3057 3058 3059 3060 3061 3062 3064 3066 3068 3070 3071 3072 3074 3075 3076 3078 3080 3081 3082 3083 3085 3086 3088 3090 3092 3093 3095 3096 3098 3099 3101 3103 3104 3106 3107 3109
3009 3010 3011 3012 3013 3014 3015 3016 3017 3018 3019 3020 3020 3021 3022 3022 3023 3023 3023 3024 3024 3025 3025 3026 3027 3027 3028 3029 3030 3031 3031 3032 3033 3035 3036 3037 3039 3040 3042 3043 3044 3045 3047 3048 3049 3050 3051 3052 3053 3054 3055 3055 3056 3057 3058 3060 3061 3063 3065 3067 3069 3069 3071 3073 3075 3076 3078 3079 3080 3081 3083 3085 3086 3088 3090 3091 3093 3095 3096 3097 3099 3101 3102 3104 3105 3106
3008 3009 3010 3011 3013 3013 3014 3015 3016 3017 3018 3019 3020 3020 3021 3022 3022 3022 3023 3023 3024 3024 3024 3025 3025 3026 3027 3027 3028 3029 3029 3030 3030 3031 3033 3035 3036 3037 3038 3040 3041 3043 3044 3046 3047 3048 3049 3050 3051 3051 3052 3052 3053 3053 3055 3057 3059 3061 3063 3065 3066 3066 3067 3070 3073 3074 3076 3077 3078 3079 3081 3083 3085 3086 3088 3090 3092 3093 3094 3096 3097 3099 3101 3102 3103 3104